Weather in Piotrkow Trybunalski

Poland     51°24′23″N   19°41′35″E
temp.,
°C
wind,
m/s
gust,
m/s
humid.,
%
clouds,
%
prec.,
mm/h
press.,
hPa
HPBL,
m
22 april, thu
thu2223:00+7sw46727 0.0 101276
02:00+6w4108640 0.1 1012213
05:00+5nnw379676 0.1 1013263
08:00+4w4893100 3.4 1014577
11:00+7wnw895897 0.6 10161355
14:00+9wnw8104865 0.6 10162246
17:00+8wnw810525 0.0 10161756
20:00+3w6128672 0.1 1018415
23 april, fri
fri2323:00+3w48885 0.1 1019185
02:00+1w498039 0.1 1019171
05:00+1w49845 0.0 1019164
08:00+4w610725 0.0 1021522
11:00+8wnw7949100 0.1 10201967
14:00+7wnw9116695 1.2 10211509
17:00+5w8117387 0.4 10211162
20:00+3nnw6128635 0.9 1022852
24 april, sat
sat2423:00+1w48850 0.1 1023166
02:00−1w487994 0.1 1024121
05:00−1w410804 0.0 1024176
08:00+3wnw59650 0.0 1024450
11:00+8w67425 0.0 10232029
14:00+9wnw6847100 0.0 10221993
17:00+8wnw576498 0.4 10211117
20:00+5w378196 0.8 1021160
25 april, sun
sun2523:00+3nne368592 0.1 1022184
02:00+2n2397100 0.2 1022191
05:000w349721 0.1 102298
08:00+4w467641 0.2 1022479
11:00+7wnw7845100 0.3 10222553
14:00+8nw81039100 0.3 10212705
17:00+7nw8105693 0.3 10211592
20:00+3wnw386921 0.6 1021146
26 april, mon
mon2623:00+1w487497 0.0 1022126
02:00−1w36840 0.0 102199
05:00−1w36815 0.0 1020103
08:00+4w510665 0.0 1020676
11:00+8wnw684511 0.0 10191992
14:00+9wnw6840100 0.0 10182287
17:00+9nw564599 0.0 10171850
20:00+5nnw22666 0.0 101710